Chehalis, WA
on Tuesday, January 22, 2013

Tuesday
Previous Day Next Day
Daily Summary
 ActualAverage (KOLM)Record (KOLM)
Temperature
Mean Temperature °F 40°F  
Max Temperature 41°F 47°F 56°F (1995)
Min Temperature 24°F 34°F 6°F (1969)
Degree Days
Heating Degree Days 32 25  
Month to date heating degree days 560  
Since 1 July heating degree days 2830  
Cooling Degree Days 0 0  
Month to date cooling degree days 0  
Year to date cooling degree days 0  
Moisture
Dew Point 28°F   
Average Humidity 85    
Maximum Humidity 100    
Minimum Humidity 61    
Precipitation
Precipitation 0.00 in 0.24 in 2.03 in (1953)
Month to date precipitation 5.73  
Year to date precipitation 5.73  
Wind
Wind Speed 2 mph   
Max Wind Speed 8 mph   
Max Gust Speed mph   
Visibility 6 miles   
Events Fog   

Key: T is trace of precipitation, MM is missing value
Source: NWS Daily Summary
Time(PST)TemperatureDew PointHumidity Pressure Visibility Wind DirectionWind SpeedGust SpeedPrecipitationEvents Conditions
12:15 AM 28.4°F 26.6°F 93% 30.15 in 0.2 miles Calm Calm - N/A Fog Light Freezing Fog
12:35 AM 26.6°F 26.6°F 100% 30.15 in 0.2 miles Calm Calm - N/A Fog Light Freezing Fog
12:55 AM 26.6°F 26.6°F 100% 30.15 in 0.2 miles Calm Calm - N/A Fog Light Freezing Fog
1:15 AM 26.6°F 26.6°F 100% 30.14 in 0.2 miles Calm Calm - N/A Fog Light Freezing Fog
1:35 AM 26.6°F 26.6°F 100% 30.15 in 0.2 miles Calm Calm - N/A Fog Light Freezing Fog
1:55 AM 26.6°F 26.6°F 100% 30.14 in 0.2 miles Calm Calm - N/A Fog Light Freezing Fog
2:15 AM 26.6°F 26.6°F 100% 30.14 in 0.2 miles Calm Calm - N/A Fog Light Freezing Fog
2:35 AM 26.6°F 26.6°F 100% 30.13 in 0.2 miles Calm Calm - N/A Fog Light Freezing Fog
2:55 AM 26.6°F 24.8°F 93% 30.13 in 0.2 miles Calm Calm - N/A Fog Light Freezing Fog
3:15 AM 24.8°F 24.8°F 100% 30.13 in 0.5 miles Calm Calm - N/A Fog Light Freezing Fog
3:55 AM 26.6°F 24.8°F 93% 30.13 in 0.2 miles NW 3.5 mph - N/A Fog Light Freezing Fog
4:15 AM 24.8°F 24.8°F 100% 30.12 in 1.0 miles Calm Calm - N/A   Mostly Cloudy
4:35 AM 26.6°F 24.8°F 93% 30.11 in 7.0 miles Calm Calm - N/A   Clear
4:55 AM 24.8°F 24.8°F 100% 30.11 in 7.0 miles Calm Calm - N/A   Clear
5:15 AM 26.6°F 24.8°F 93% 30.11 in 7.0 miles Calm Calm - N/A   Clear
5:35 AM 26.6°F 24.8°F 93% 30.11 in 7.0 miles NE 3.5 mph - N/A   Clear
5:55 AM 24.8°F 24.8°F 100% 30.10 in 5.0 miles Calm Calm - N/A   Clear
6:15 AM 24.8°F 24.8°F 100% 30.11 in 7.0 miles Calm Calm - N/A   Clear
6:35 AM 24.8°F 24.8°F 100% 30.10 in 9.0 miles Calm Calm - N/A   Clear
6:55 AM 24.8°F 24.8°F 100% 30.10 in 10.0 miles North 3.5 mph - N/A   Clear
7:15 AM 24.8°F 24.8°F 100% 30.10 in 8.0 miles Calm Calm - N/A   Clear
7:35 AM 24.8°F 24.8°F 100% 30.10 in 10.0 miles Calm Calm - N/A   Clear
7:55 AM 24.8°F 24.8°F 100% 30.09 in 10.0 miles NNE 3.5 mph - N/A   Clear
8:15 AM 26.6°F 24.8°F 93% 30.09 in 8.0 miles North 3.5 mph - N/A   Clear
8:35 AM 26.6°F 24.8°F 93% 30.09 in 8.0 miles Calm Calm - N/A   Clear
8:55 AM 26.6°F 26.6°F 100% 30.09 in 8.0 miles NNW 3.5 mph - N/A   Clear
9:15 AM 28.4°F 26.6°F 93% 30.09 in 8.0 miles North 3.5 mph - N/A   Clear
9:35 AM 28.4°F 28.4°F 100% 30.09 in 8.0 miles Calm Calm - N/A   Clear
9:55 AM 30.2°F 30.2°F 100% 30.09 in 5.0 miles Calm Calm - N/A   Clear
10:15 AM 32.0°F 30.2°F 93% 30.09 in 5.0 miles SSE 3.5 mph - N/A   Clear
10:35 AM 32.0°F 32.0°F 100% 30.09 in 4.0 miles Calm Calm - N/A   Clear
10:55 AM 32.0°F 32.0°F 100% 30.09 in 4.0 miles South 4.6 mph - N/A   Clear
11:15 AM 33.8°F 32.0°F 93% 30.08 in 5.0 miles South 4.6 mph - N/A   Clear
11:35 AM 35.6°F 32.0°F 87% 30.08 in 5.0 miles SSW 8.1 mph - N/A   Clear
11:55 AM 35.6°F 30.2°F 81% 30.07 in 10.0 miles South 5.8 mph - N/A   Clear
12:15 PM 37.4°F 32.0°F 81% 30.06 in 10.0 miles South 6.9 mph - N/A   Clear
12:35 PM 37.4°F 28.4°F 70% 30.05 in 7.0 miles SSE 4.6 mph - N/A   Clear
12:55 PM 39.2°F 28.4°F 65% 30.05 in 6.0 miles South 6.9 mph - N/A   Haze
1:15 PM 39.2°F 28.4°F 65% 30.04 in 10.0 miles SSE 6.9 mph - N/A   Clear
1:35 PM 41.0°F 28.4°F 61% 30.03 in 5.0 miles SSE 6.9 mph - N/A   Haze
1:55 PM 41.0°F 28.4°F 61% 30.02 in 5.0 miles SSE 6.9 mph - N/A   Haze
2:15 PM 41.0°F 28.4°F 61% 30.01 in 4.0 miles South 5.8 mph - N/A   Haze
2:35 PM 41.0°F 28.4°F 61% 30.02 in 5.0 miles South 3.5 mph - N/A   Haze
2:55 PM 41.0°F 28.4°F 61% 30.01 in 5.0 miles SSE 5.8 mph - N/A   Haze
3:15 PM 41.0°F 28.4°F 61% 30.00 in 5.0 miles SSE 5.8 mph - N/A   Haze
3:35 PM 41.0°F 28.4°F 61% 29.99 in 5.0 miles South 5.8 mph - N/A   Haze
3:55 PM 41.0°F 28.4°F 61% 29.99 in 5.0 miles South 5.8 mph - N/A   Haze
4:15 PM 41.0°F 28.4°F 61% 29.99 in 8.0 miles SSE 4.6 mph - N/A   Clear
4:35 PM 41.0°F 28.4°F 61% 29.98 in 5.0 miles South 3.5 mph - N/A   Haze
4:55 PM 39.2°F 28.4°F 65% 29.98 in 5.0 miles SW 3.5 mph - N/A   Haze
5:15 PM 39.2°F 28.4°F 65% 29.97 in 5.0 miles SW 3.5 mph - N/A   Haze
5:55 PM 37.4°F 30.2°F 75% 29.96 in 10.0 miles WSW 4.6 mph - N/A   Clear
6:15 PM 37.4°F 30.2°F 75% 29.97 in 7.0 miles WSW 4.6 mph - N/A   Clear
6:35 PM 37.4°F 30.2°F 75% 29.96 in 10.0 miles SW 3.5 mph - N/A   Clear
6:55 PM 35.6°F 30.2°F 81% 29.95 in 10.0 miles SW 4.6 mph - N/A   Clear
7:15 PM 37.4°F 28.4°F 70% 29.95 in 10.0 miles SW 3.5 mph - N/A   Clear
7:35 PM 37.4°F 30.2°F 75% 29.95 in 6.0 miles SW 3.5 mph - N/A   Haze
7:55 PM 37.4°F 30.2°F 75% 29.95 in 6.0 miles WSW 3.5 mph - N/A   Haze
8:15 PM 35.6°F 30.2°F 81% 29.95 in 9.0 miles Calm Calm - N/A   Clear
8:55 PM 35.6°F 32.0°F 87% 29.95 in 6.0 miles Calm Calm - N/A   Haze
9:15 PM 35.6°F 32.0°F 87% 29.94 in 7.0 miles Calm Calm - N/A   Overcast
9:35 PM 35.6°F 32.0°F 87% 29.94 in 5.0 miles Calm Calm - N/A   Overcast
9:55 PM 35.6°F 32.0°F 87% 29.94 in 5.0 miles SW 3.5 mph - N/A   Haze
10:15 PM 35.6°F 32.0°F 87% 29.94 in 7.0 miles SE 3.5 mph - N/A   Overcast
10:35 PM 35.6°F 32.0°F 87% 29.95 in 10.0 miles Calm Calm - N/A   Overcast
10:55 PM 35.6°F 32.0°F 87% 29.95 in 10.0 miles Calm Calm - N/A   Overcast
11:15 PM 35.6°F 32.0°F 87% 29.95 in 5.0 miles West 3.5 mph - N/A   Haze
11:35 PM 35.6°F 32.0°F 87% 29.95 in 5.0 miles Calm Calm - N/A   Overcast
11:55 PM 35.6°F 32.0°F 87% 29.95 in 6.0 miles WSW 4.6 mph - N/A   Overcast
Moon Phase
Jan. 22 Jan. 26 Feb. 03 Feb. 10 Feb. 17
Sunrise:07:46 AM (PST) Moon Rise:01:25 PM (PST)
Sunset:05:01 PM (PST) Moon Set:04:15 AM (PST)

Copyright © 2014 The Weather Underground, Inc.